Location: Apple Hill Campground
(44.2915°N, 71.6726°W)
Time: 07:06:58
(UTC+00:00)

BlueWalker 3 - Pass Details

Date: 04 October 2024
Orbit: 470 x 482 km, 53.2° (Epoch: 04 November)

Event Time Altitude Azimuth Distance (km) Brightness Sun altitude
Exits shadow 10:07:26 - 232° (SW) 1,946 4.4 -8.2°
Reaches altitude 10° 10:08:14 10° 232° (SW) 1,625 4.0 -8.1°
Maximum altitude 10:11:53 84° 147° (SSE) 477 1.8 -7.4°
Drops below altitude 10° 10:15:35 10° 57° (ENE) 1,636 5.5 -6.8°
Sets 10:17:44 0° 56° (ENE) 2,517 6.5 -6.4°
